FFA426 FCOU-FKKD

Flight info

Callsign FFA426
Flight time 1h 2m
Altitude 40000
Route MOROS UL434 NLY
Aircraft A359/H-SDE2E3GHIJ3J4J5LM1ORWXY/LB1D1

Departure

Time 2026-04-24 10:08
Airport Ouesso Airport (FCOU)

Arrival

Time 2026-04-24 11:10
Airport Douala International Airport (FKKD)
Time Latitude Longitude Altitude Speed Heading
2026-04-24 09:40 1.60877 16.03924 1179 ft 0 kts 104°
2026-04-24 10:01 1.60878 16.03919 1173 ft 3 kts 92°
2026-04-24 10:01 1.60876 16.03901 1169 ft 2 kts 53°
2026-04-24 10:01 1.60863 16.03889 1170 ft 3 kts 16°
2026-04-24 10:02 1.60862 16.03889 1170 ft 0 kts 13°
2026-04-24 10:05 1.60875 16.03887 1170 ft 11 kts 357°
2026-04-24 10:05 1.60897 16.03880 1170 ft 9 kts 329°
2026-04-24 10:06 1.60926 16.03808 1169 ft 13 kts 284°
2026-04-24 10:06 1.60991 16.03623 1171 ft 12 kts 330°
2026-04-24 10:06 1.60927 16.03605 1175 ft 387 kts 10°
2026-04-24 10:07 1.60671 16.03531 1177 ft 0 kts 14°
2026-04-24 10:07 1.60755 16.03554 1174 ft 48 kts 15°
2026-04-24 10:07 1.61431 16.03724 1168 ft 149 kts 14°
2026-04-24 10:08 1.62685 16.04019 1552 ft 200 kts 11°
2026-04-24 10:08 1.64048 16.04323 2662 ft 211 kts 10°
2026-04-24 10:08 1.65557 16.04662 3494 ft 235 kts 11°
2026-04-24 10:08 1.67294 16.04817 3970 ft 270 kts 354°
2026-04-24 10:09 1.69321 16.04542 4216 ft 318 kts 347°
2026-04-24 10:09 1.71511 16.04007 4319 ft 321 kts 342°
2026-04-24 10:09 1.73610 16.03362 4918 ft 310 kts 340°
2026-04-24 10:09 1.75580 16.02717 5528 ft 285 kts 340°
2026-04-24 10:10 1.77436 16.02109 5844 ft 278 kts 340°
2026-04-24 10:10 1.79278 16.01520 5922 ft 278 kts 340°
2026-04-24 10:10 1.81113 16.00948 5915 ft 278 kts 341°
2026-04-24 10:10 1.82967 16.00389 6014 ft 276 kts 341°
2026-04-24 10:11 1.84818 15.99837 6348 ft 282 kts 342°
2026-04-24 10:11 1.86736 15.99271 6931 ft 290 kts 343°
2026-04-24 10:11 1.88675 15.98700 7834 ft 292 kts 344°
2026-04-24 10:11 1.90636 15.98124 8777 ft 294 kts 345°
2026-04-24 10:12 1.92609 15.97544 9694 ft 298 kts 345°
2026-04-24 10:12 1.94620 15.96953 10431 ft 308 kts 346°
2026-04-24 10:12 1.96718 15.96339 10822 ft 329 kts 345°
2026-04-24 10:12 1.98971 15.95678 11233 ft 346 kts 345°
2026-04-24 10:13 2.01266 15.95002 11854 ft 355 kts 345°
2026-04-24 10:13 2.03715 15.94278 12569 ft 361 kts 345°
2026-04-24 10:13 2.06143 15.93559 13294 ft 367 kts 345°
2026-04-24 10:13 2.08616 15.92826 13998 ft 372 kts 345°
2026-04-24 10:14 2.11105 15.92090 14645 ft 376 kts 344°
2026-04-24 10:14 2.13598 15.91352 15291 ft 380 kts 344°
2026-04-24 10:14 2.16142 15.90600 15936 ft 383 kts 344°
2026-04-24 10:14 2.18718 15.89839 16545 ft 388 kts 343°
2026-04-24 10:15 2.21320 15.89070 17134 ft 393 kts 343°
2026-04-24 10:15 2.23958 15.88290 17800 ft 396 kts 343°
2026-04-24 10:15 2.26621 15.87504 18385 ft 400 kts 343°
2026-04-24 10:15 2.29294 15.86714 18931 ft 403 kts 343°
2026-04-24 10:16 2.32005 15.85913 19509 ft 406 kts 343°
2026-04-24 10:16 2.34733 15.85107 20108 ft 408 kts 343°
2026-04-24 10:16 2.37466 15.84299 20690 ft 412 kts 343°
2026-04-24 10:16 2.38919 15.83870 20971 ft 414 kts 343°
2026-04-24 10:17 2.40879 15.83291 21363 ft 416 kts 343°
2026-04-24 10:17 2.43664 15.82468 21955 ft 418 kts 343°
2026-04-24 10:17 2.46459 15.81642 22531 ft 421 kts 343°
2026-04-24 10:17 2.49287 15.80807 23069 ft 425 kts 343°
2026-04-24 10:18 2.52138 15.79964 23583 ft 428 kts 343°
2026-04-24 10:18 2.55006 15.79116 24091 ft 430 kts 343°
2026-04-24 10:18 2.57893 15.78263 24540 ft 434 kts 343°
2026-04-24 10:18 2.60792 15.77406 25038 ft 436 kts 343°
2026-04-24 10:19 2.63720 15.76541 25546 ft 439 kts 343°
2026-04-24 10:19 2.66660 15.75672 26068 ft 442 kts 343°
2026-04-24 10:19 2.69626 15.74796 26532 ft 447 kts 343°
2026-04-24 10:19 2.72550 15.73822 27013 ft 450 kts 338°
2026-04-24 10:20 2.75353 15.72420 27529 ft 452 kts 328°
2026-04-24 10:20 2.77878 15.70537 28035 ft 455 kts 317°
2026-04-24 10:20 2.80025 15.68183 28448 ft 459 kts 306°
2026-04-24 10:20 2.81642 15.65442 28951 ft 460 kts 294°
2026-04-24 10:21 2.82803 15.62451 29418 ft 463 kts 287°
2026-04-24 10:21 2.83656 15.59331 29889 ft 465 kts 282°
2026-04-24 10:21 2.84349 15.56162 30279 ft 469 kts 280°
2026-04-24 10:21 2.84988 15.52955 30644 ft 472 kts 280°
2026-04-24 10:22 2.85632 15.49713 31013 ft 475 kts 280°
2026-04-24 10:22 2.86301 15.46455 31391 ft 478 kts 281°
2026-04-24 10:22 2.86994 15.43195 31765 ft 481 kts 281°
2026-04-24 10:22 2.87703 15.39952 32138 ft 484 kts 282°
2026-04-24 10:23 2.88436 15.36651 32497 ft 487 kts 282°
2026-04-24 10:23 2.89176 15.33342 32837 ft 490 kts 282°
2026-04-24 10:23 2.89925 15.29994 33182 ft 493 kts 282°
2026-04-24 10:23 2.90676 15.26641 33550 ft 494 kts 281°
2026-04-24 10:24 2.91422 15.23300 33907 ft 496 kts 282°
2026-04-24 10:24 2.92176 15.19921 34201 ft 498 kts 282°
2026-04-24 10:24 2.92930 15.16533 34431 ft 501 kts 282°
2026-04-24 10:24 2.93689 15.13129 34748 ft 502 kts 281°
2026-04-24 10:25 2.94449 15.09714 35131 ft 500 kts 282°
2026-04-24 10:25 2.95203 15.06323 35519 ft 500 kts 282°
2026-04-24 10:25 2.95959 15.02928 35872 ft 499 kts 282°
2026-04-24 10:25 2.96714 14.99534 36197 ft 500 kts 282°
2026-04-24 10:26 2.97459 14.96185 36548 ft 499 kts 282°
2026-04-24 10:26 2.98223 14.92753 36866 ft 499 kts 282°
2026-04-24 10:26 2.98974 14.89376 37271 ft 497 kts 282°
2026-04-24 10:26 2.99723 14.86004 37644 ft 495 kts 282°
2026-04-24 10:27 3.00471 14.82643 38036 ft 494 kts 282°
2026-04-24 10:27 3.01208 14.79329 38337 ft 494 kts 282°
2026-04-24 10:27 3.01954 14.75970 38652 ft 493 kts 282°
2026-04-24 10:27 3.02699 14.72621 38932 ft 492 kts 282°
2026-04-24 10:28 3.03441 14.69279 39177 ft 492 kts 282°
2026-04-24 10:28 3.04183 14.65942 39456 ft 490 kts 282°
2026-04-24 10:28 3.04921 14.62618 39681 ft 491 kts 282°
2026-04-24 10:28 3.05661 14.59288 39867 ft 491 kts 282°
2026-04-24 10:29 3.06405 14.55939 39931 ft 495 kts 282°
2026-04-24 10:29 3.07915 14.49135 39933 ft 504 kts 282°
2026-04-24 10:30 3.09433 14.42294 39930 ft 509 kts 282°
2026-04-24 10:30 3.10973 14.35355 39921 ft 510 kts 282°
2026-04-24 10:31 3.12510 14.28429 39924 ft 509 kts 282°
2026-04-24 10:31 3.14044 14.21510 39927 ft 509 kts 282°
2026-04-24 10:32 3.15570 14.14630 39929 ft 508 kts 282°
2026-04-24 10:32 3.17099 14.07729 39929 ft 508 kts 282°
2026-04-24 10:33 3.18627 14.00826 39935 ft 508 kts 282°
2026-04-24 10:33 3.20154 13.93931 39933 ft 508 kts 282°
2026-04-24 10:34 3.21680 13.87038 39931 ft 508 kts 282°
2026-04-24 10:34 3.23210 13.80121 39925 ft 509 kts 282°
2026-04-24 10:35 3.24583 13.73916 39934 ft 509 kts 282°
2026-04-24 10:35 3.26110 13.67009 39934 ft 509 kts 282°
2026-04-24 10:36 3.27381 13.61260 39941 ft 509 kts 282°
2026-04-24 10:36 3.28912 13.54335 39932 ft 509 kts 282°
2026-04-24 10:37 3.30444 13.47401 39948 ft 510 kts 282°
2026-04-24 10:37 3.31976 13.40463 39943 ft 510 kts 282°
2026-04-24 10:38 3.33499 13.33567 39944 ft 510 kts 282°
2026-04-24 10:38 3.35030 13.26629 39934 ft 510 kts 282°
2026-04-24 10:39 3.36559 13.19697 39952 ft 510 kts 282°
2026-04-24 10:39 3.38091 13.12753 39955 ft 510 kts 282°
2026-04-24 10:40 3.39620 13.05818 39959 ft 511 kts 282°
2026-04-24 10:40 3.41142 12.98911 39959 ft 511 kts 282°
2026-04-24 10:41 3.42670 12.91974 39960 ft 511 kts 282°
2026-04-24 10:41 3.44202 12.85021 39957 ft 511 kts 282°
2026-04-24 10:42 3.45730 12.78079 39955 ft 511 kts 282°
2026-04-24 10:42 3.47260 12.71127 39955 ft 511 kts 282°
2026-04-24 10:43 3.48795 12.64172 39952 ft 511 kts 282°
2026-04-24 10:43 3.50321 12.57223 39962 ft 511 kts 282°
2026-04-24 10:44 3.51838 12.50306 39969 ft 511 kts 282°
2026-04-24 10:44 3.53365 12.43353 39972 ft 511 kts 282°
2026-04-24 10:45 3.54897 12.36377 39972 ft 511 kts 282°
2026-04-24 10:45 3.56370 12.29418 39966 ft 511 kts 279°
2026-04-24 10:46 3.57785 12.22491 39966 ft 511 kts 279°
2026-04-24 10:46 3.59277 12.15491 39979 ft 511 kts 280°
2026-04-24 10:47 3.60502 12.08531 39978 ft 510 kts 275°
2026-04-24 10:47 3.61339 12.01470 39981 ft 511 kts 274°
2026-04-24 10:48 3.62193 11.94396 39993 ft 511 kts 274°
2026-04-24 10:48 3.63051 11.87348 39988 ft 511 kts 274°
2026-04-24 10:48 3.63480 11.83831 39706 ft 503 kts 274°
2026-04-24 10:49 3.63904 11.80362 38972 ft 503 kts 274°
2026-04-24 10:49 3.64323 11.76920 38121 ft 505 kts 275°
2026-04-24 10:49 3.64748 11.73424 37243 ft 506 kts 275°
2026-04-24 10:49 3.65172 11.69924 36390 ft 507 kts 275°
2026-04-24 10:50 3.65598 11.66407 35551 ft 508 kts 275°
2026-04-24 10:50 3.66026 11.62888 34756 ft 508 kts 275°
2026-04-24 10:50 3.66453 11.59371 33929 ft 510 kts 276°
2026-04-24 10:50 3.66885 11.55840 32928 ft 512 kts 276°
2026-04-24 10:51 3.67319 11.52291 32001 ft 513 kts 276°
2026-04-24 10:51 3.67754 11.48737 31154 ft 513 kts 276°
2026-04-24 10:51 3.68187 11.45196 30378 ft 512 kts 276°
2026-04-24 10:51 3.68615 11.41703 29630 ft 509 kts 276°
2026-04-24 10:52 3.69041 11.38209 28979 ft 503 kts 276°
2026-04-24 10:52 3.69463 11.34746 28372 ft 496 kts 276°
2026-04-24 10:52 3.69877 11.31340 27771 ft 491 kts 276°
2026-04-24 10:52 3.70287 11.27966 27168 ft 486 kts 275°
2026-04-24 10:53 3.70693 11.24624 26559 ft 480 kts 275°
2026-04-24 10:53 3.71095 11.21310 25974 ft 475 kts 275°
2026-04-24 10:53 3.71493 11.18038 25384 ft 471 kts 275°
2026-04-24 10:53 3.71886 11.14799 24797 ft 466 kts 275°
2026-04-24 10:54 3.72276 11.11588 24201 ft 463 kts 275°
2026-04-24 10:54 3.72661 11.08410 23623 ft 459 kts 275°
2026-04-24 10:54 3.73044 11.05252 22942 ft 455 kts 275°
2026-04-24 10:54 3.73423 11.02127 22323 ft 449 kts 275°
2026-04-24 10:55 3.73795 10.99045 21720 ft 443 kts 276°
2026-04-24 10:55 3.74164 10.95994 21122 ft 438 kts 276°
2026-04-24 10:55 3.74529 10.92978 20520 ft 434 kts 276°
2026-04-24 10:55 3.74886 10.90029 19938 ft 429 kts 276°
2026-04-24 10:56 3.75243 10.87073 19333 ft 425 kts 276°
2026-04-24 10:56 3.75597 10.84145 18744 ft 422 kts 276°
2026-04-24 10:56 3.75948 10.81244 18254 ft 415 kts 277°
2026-04-24 10:56 3.76174 10.78395 17993 ft 403 kts 271°
2026-04-24 10:57 3.76251 10.75610 17952 ft 400 kts 271°
2026-04-24 10:57 3.76341 10.72809 17952 ft 403 kts 271°
2026-04-24 10:57 3.76448 10.70002 17943 ft 405 kts 272°
2026-04-24 10:57 3.76565 10.67213 17946 ft 405 kts 272°
2026-04-24 10:58 3.76687 10.64403 17947 ft 405 kts 272°
2026-04-24 10:58 3.76812 10.61584 17943 ft 405 kts 272°
2026-04-24 10:58 3.76938 10.58768 17850 ft 400 kts 272°
2026-04-24 10:58 3.77060 10.56007 17116 ft 399 kts 272°
2026-04-24 10:59 3.77188 10.53202 16106 ft 407 kts 272°
2026-04-24 10:59 3.77320 10.50358 15275 ft 409 kts 272°
2026-04-24 10:59 3.77452 10.47517 14501 ft 403 kts 272°
2026-04-24 10:59 3.77579 10.44742 13289 ft 395 kts 272°
2026-04-24 11:00 3.77703 10.42061 12586 ft 373 kts 272°
2026-04-24 11:00 3.77820 10.39549 12040 ft 350 kts 272°
2026-04-24 11:00 3.78131 10.37191 11290 ft 335 kts 282°
2026-04-24 11:00 3.78663 10.34950 10559 ft 327 kts 284°
2026-04-24 11:01 3.79228 10.32768 10041 ft 321 kts 284°
2026-04-24 11:01 3.79793 10.30651 9664 ft 316 kts 284°
2026-04-24 11:01 3.80367 10.28544 9267 ft 310 kts 284°
2026-04-24 11:01 3.80940 10.26472 8847 ft 307 kts 284°
2026-04-24 11:02 3.81511 10.24423 8464 ft 303 kts 284°
2026-04-24 11:02 3.82077 10.22405 8119 ft 299 kts 284°
2026-04-24 11:02 3.82639 10.20406 7771 ft 297 kts 284°
2026-04-24 11:02 3.83198 10.18426 7428 ft 295 kts 284°
2026-04-24 11:03 3.83747 10.16473 7075 ft 294 kts 284°
2026-04-24 11:03 3.84299 10.14508 6724 ft 291 kts 283°
2026-04-24 11:03 3.84848 10.12560 6377 ft 288 kts 283°
2026-04-24 11:03 3.85389 10.10634 6019 ft 287 kts 283°
2026-04-24 11:04 3.85929 10.08715 5681 ft 285 kts 283°
2026-04-24 11:04 3.86463 10.06815 5334 ft 282 kts 283°
2026-04-24 11:04 3.86993 10.04933 5001 ft 280 kts 283°
2026-04-24 11:04 3.87520 10.03061 4677 ft 278 kts 283°
2026-04-24 11:05 3.88041 10.01208 4330 ft 276 kts 283°
2026-04-24 11:05 3.88561 9.99360 4029 ft 274 kts 282°
2026-04-24 11:05 3.89076 9.97526 3909 ft 273 kts 283°
2026-04-24 11:05 3.89591 9.95689 3898 ft 274 kts 283°
2026-04-24 11:06 3.90098 9.93894 3957 ft 259 kts 283°
2026-04-24 11:06 3.90580 9.92223 3964 ft 241 kts 284°
2026-04-24 11:06 3.91184 9.90715 3792 ft 233 kts 292°
2026-04-24 11:06 3.91904 9.89247 3502 ft 231 kts 292°
2026-04-24 11:07 3.93316 9.86386 2861 ft 230 kts 294°
2026-04-24 11:07 3.94035 9.84962 2569 ft 229 kts 294°
2026-04-24 11:07 3.94746 9.83544 2275 ft 226 kts 293°
2026-04-24 11:08 3.95442 9.82167 1985 ft 216 kts 293°
2026-04-24 11:08 3.96104 9.80859 1694 ft 205 kts 292°
2026-04-24 11:08 3.96739 9.79597 1476 ft 202 kts 293°
2026-04-24 11:08 3.97367 9.78353 1206 ft 199 kts 294°
2026-04-24 11:09 3.97964 9.77184 936 ft 178 kts 294°
2026-04-24 11:09 3.98488 9.76151 733 ft 159 kts 295°
2026-04-24 11:09 3.98969 9.75196 537 ft 148 kts 296°
2026-04-24 11:09 3.99423 9.74309 336 ft 138 kts 297°
2026-04-24 11:10 3.99851 9.73475 155 ft 131 kts 296°
2026-04-24 11:10 4.00261 9.72659 40 ft 130 kts 299°
2026-04-24 11:10 4.00604 9.71983 46 ft 74 kts 297°
2026-04-24 11:10 4.00718 9.71750 44 ft 20 kts 297°
2026-04-24 11:11 4.00818 9.71678 46 ft 17 kts
2026-04-24 11:11 4.00935 9.71724 44 ft 19 kts 29°
2026-04-24 11:11 4.01048 9.71774 47 ft 3 kts 358°
2026-04-24 11:11 4.01062 9.71770 47 ft 10 kts 342°
2026-04-24 11:12 4.01089 9.71749 44 ft 0 kts 313°